Location: Brasstown Bald
(34.8693°N, 83.8103°W)
Time: 23:38:29
(UTC-04:00)

Amateur Radio Satellites - All Passes

Search period start: 25 September 2016 23:08
Search period end: 26 September 2016 23:08
Location: Brasstown Bald, 34.8693°N, 83.8103°W

Satellite Date Start Highest point End Downlink Frequencies (MHz)
Time Altitude Azimuth
ISS 25 Sep 23:17:52 23:19:25 13° 333° (NNW) 23:21:01 145.825
UNISAT 6 25 Sep 23:26:55 23:31:08 42° 99° (E) 23:35:24 437.425
AO-85 25 Sep 23:30:18 23:34:29 24° 308° (NW) 23:38:29 145.980
RS-15 25 Sep 23:34:15 23:44:02 29° 321° (NW) 23:54:15 29.354- 29.394
HUMSAT D 25 Sep 23:40:56 23:44:35 32° 262° (W) 23:48:17 437.325/437.525
ESTCUBE 1 25 Sep 23:41:32 23:45:32 32° 71° (ENE) 23:49:34 437.505/2401.250
M-CUBED/EXP-1 PRIME 25 Sep 23:46:11 23:49:05 18° 66° (ENE) 23:51:51 437.505
PRISM 25 Sep 23:47:21 23:48:59 12° 294° (WNW) 23:50:36 437.425
VELOX 1 25 Sep 23:52:05 23:55:20 20° 68° (ENE) 23:58:35 145.980
DX 1 25 Sep 23:53:37 23:55:33 13° 65° (ENE) 23:57:28 434.975-435.025
JUGNU 25 Sep 23:58:36 00:02:29 18° 181° (S) 00:06:22 437.505
CUBEBUG 1 26 Sep 00:01:48 00:05:46 33° 72° (ENE) 00:09:44 437.445
ANTELSAT 26 Sep 00:02:18 00:06:41 73° 283° (WNW) 00:11:10 437.575/2403.000
NANOSAT C BR1 26 Sep 00:08:10 00:09:57 12° 93° (E) 00:11:43 145.865
TIGRISAT 26 Sep 00:23:43 00:27:53 43° 286° (WNW) 00:32:07 435.000
QB50P2 26 Sep 00:27:44 00:31:16 25° 97° (E) 00:34:46 145.880/145.840
POLYITAN 1 26 Sep 00:29:59 00:33:30 25° 97° (E) 00:37:01 437.675
50 SAT 26 Sep 00:31:09 00:34:40 51° 75° (ENE) 00:38:13 437.505
AISAT 26 Sep 00:43:08 00:47:35 84° 79° (ENE) 00:52:04 437.250
AUBIESAT-1 26 Sep 00:43:52 00:48:05 72° 72° (ENE) 00:52:00 437.475
SO-50 26 Sep 00:44:16 00:47:12 17° 48° (NE) 00:50:06 436.795
SRMSAT 26 Sep 00:50:52 00:54:20 16° 172° (S) 00:57:47 437.500
SPROUT 26 Sep 00:53:42 00:57:51 52° 75° (ENE) 01:02:00 437.525
JAS-2 26 Sep 00:55:36 01:03:06 46° 97° (E) 01:10:11 435.910
UKube-1 26 Sep 01:02:53 01:07:09 62° 75° (ENE) 01:11:26 .
UNISAT 6 26 Sep 01:04:59 01:07:28 15° 293° (WNW) 01:09:59 437.425
QB50P1 26 Sep 01:10:23 01:14:36 82° 103° (ESE) 01:18:48 145.935-145.965
DUCHIFAT 1 26 Sep 01:10:55 01:15:06 71° 101° (E) 01:19:16 145.980
ESTCUBE 1 26 Sep 01:19:03 01:22:21 20° 265° (W) 01:25:40 437.505/2401.250
M-CUBED/EXP-1 PRIME 26 Sep 01:19:30 01:23:23 32° 257° (WSW) 01:27:02 437.505
BUGSAT 1 26 Sep 01:23:23 01:27:05 35° 99° (E) 01:30:46 437.445
POPSAT HIP 1 26 Sep 01:23:42 01:27:53 70° 284° (WNW) 01:32:04 437.405
DX 1 26 Sep 01:27:01 01:31:16 50° 260° (W) 01:35:32 434.975-435.025
VELOX 1 26 Sep 01:27:36 01:31:33 31° 263° (W) 01:35:31 145.980
BEESAT 3 26 Sep 01:36:37 01:39:58 28° 113° (ESE) 01:43:22 437.485
CUBEBUG 1 26 Sep 01:39:02 01:42:04 18° 265° (W) 01:45:08 437.445
NANOSAT C BR1 26 Sep 01:41:52 01:45:50 43° 286° (WNW) 01:49:49 145.865
JUGNU 26 Sep 01:47:45 01:50:46 14° 191° (S) 01:53:45 437.505
RS-15 26 Sep 01:57:21 02:02:46 13° 356° (N) 02:08:14 29.354- 29.394
BEESAT 26 Sep 02:03:21 02:05:01 12° 64° (ENE) 02:06:42 436.000
QB50P2 26 Sep 02:03:41 02:06:54 22° 290° (WNW) 02:10:07 145.880/145.840
POLYITAN 1 26 Sep 02:05:55 02:09:08 22° 290° (WNW) 02:12:21 437.675
Cosmos 2491 26 Sep 02:08:59 02:16:16 28° 72° (ENE) 02:23:26 435.465 / 435.565
TISAT 1 26 Sep 02:22:23 02:26:35 74° 259° (W) 02:30:46 437.305
SO-50 26 Sep 02:23:34 02:27:57 49° 245° (WSW) 02:32:14 436.795
BEESAT 2 26 Sep 02:26:47 02:30:36 54° 116° (ESE) 02:34:29 435.950
SPROUT 26 Sep 02:33:16 02:34:02 10° 268° (W) 02:34:49 437.525
SRMSAT 26 Sep 02:38:52 02:42:46 18° 182° (S) 02:46:41 437.500
Oscar 19 26 Sep 02:39:17 02:44:14 46° 100° (E) 02:49:09 437.125/150
JAS-2 26 Sep 02:40:52 02:47:46 35° 294° (WNW) 02:54:25 435.910
BUGSAT 1 26 Sep 02:59:56 03:02:07 14° 292° (WNW) 03:04:19 437.445
YUBILEINY 26 Sep 03:05:39 03:12:52 30° 84° (E) 03:20:03 435.215
ITUPSAT 1 26 Sep 03:09:55 03:14:36 62° 74° (ENE) 03:19:18 437.325
BEESAT 3 26 Sep 03:14:44 03:17:38 20° 308° (NW) 03:20:33 437.485
Gurwin Techsat 1B 26 Sep 03:18:47 03:23:59 53° 100° (E) 03:29:09 435.225
SWISSCUBE 26 Sep 03:24:12 03:28:56 80° 257° (WSW) 03:33:44 437.505
ITAMSAT 1 26 Sep 03:28:53 03:32:02 16° 93° (E) 03:35:10 435.822/435.867
Cosmos 2504 26 Sep 03:33:33 03:35:24 11° 80° (E) 03:37:15 435.465 / 435.565
BEESAT 26 Sep 03:37:30 03:42:12 64° 258° (WSW) 03:46:56 436.000
MOZHAYETS 4 26 Sep 03:47:26 03:51:01 23° 69° (ENE) 03:54:37
Cosmos 2491 26 Sep 04:04:54 04:13:28 57° 270° (W) 04:22:00 435.465 / 435.565
BEESAT 2 26 Sep 04:07:06 04:08:45 12° 312° (NW) 04:10:25 435.950
ISS 26 Sep 04:10:14 04:12:54 22° 33° (NNE) 04:15:34 145.825
RS-15 26 Sep 04:12:51 04:22:14 24° 33° (NNE) 04:31:31 29.354- 29.394
AO-7 26 Sep 04:14:06 04:20:54 28° 97° (E) 04:27:40 29.400- 29.500
Oscar 19 26 Sep 04:19:42 04:23:08 18° 294° (WNW) 04:26:35 437.125/150
KKS-1 26 Sep 04:28:06 04:32:18 42° 73° (ENE) 04:36:30 437.445
SRMSAT 26 Sep 04:28:28 04:31:12 13° 192° (SSW) 04:33:57 437.500
AIST 2 26 Sep 04:30:13 04:33:59 37° 114° (ESE) 04:37:49 435.215
ITUPSAT 1 26 Sep 04:51:31 04:52:46 11° 268° (W) 04:54:01 437.325
Gurwin Techsat 1B 26 Sep 05:00:06 05:03:28 17° 295° (WNW) 05:06:49 435.225
YUBILEINY 26 Sep 05:00:40 05:09:09 52° 281° (WNW) 05:17:39 435.215
CUBESAT XI-V 26 Sep 05:01:36 05:04:51 19° 68° (ENE) 05:08:07 437.345
PCSat 26 Sep 05:01:40 05:06:36 37° 109° (ESE) 05:11:32 145.827
ITAMSAT 1 26 Sep 05:06:40 05:11:43 51° 288° (WNW) 05:16:46 435.822/435.867
STARS 26 Sep 05:07:40 05:11:58 56° 74° (ENE) 05:16:15 437.465
Cosmos 2504 26 Sep 05:20:07 05:27:42 88° 96° (E) 05:34:57 435.465 / 435.565
MOZHAYETS 4 26 Sep 05:24:08 05:28:01 28° 264° (W) 05:31:57
HORYU 2 26 Sep 05:43:58 05:46:35 15° 94° (E) 05:49:12 437.375
ISS 26 Sep 05:46:27 05:49:25 31° 228° (SW) 05:52:23 145.825
AO-7 26 Sep 06:05:54 06:13:57 57° 293° (WNW) 06:21:59 29.400- 29.500
KKS-1 26 Sep 06:06:38 06:09:01 14° 266° (W) 06:11:25 437.445
AIST 2 26 Sep 06:09:50 06:12:36 17° 310° (NW) 06:15:24 435.215
CUSAT 1 26 Sep 06:23:56 06:30:23 28° 69° (ENE) 06:35:59 437.405
RS-15 26 Sep 06:24:51 06:37:17 75° 59° (ENE) 06:49:20 29.354- 29.394
AO-85 26 Sep 06:25:58 06:27:41 12° 46° (NE) 06:29:22 145.980
AIST 1 26 Sep 06:29:43 06:34:07 84° 274° (W) 06:38:31
BRITE-PL 26 Sep 06:34:26 06:38:42 32° 95° (E) 06:42:41 437.365/2234.400
GOMX 1 26 Sep 06:36:52 06:38:09 11° 91° (E) 06:39:25 467.674
CUBESAT XI-V 26 Sep 06:37:35 06:41:55 37° 262° (W) 06:46:17 437.345
NOAA 15 26 Sep 06:42:29 06:46:04 18° 94° (E) 06:49:38 137.62
PCSat 26 Sep 06:45:30 06:50:01 27° 305° (NW) 06:54:34 145.827
STARS 26 Sep 06:47:57 06:48:35 10° 268° (W) 06:49:14 437.465
Cubesat XI-IV 26 Sep 06:51:02 06:54:35 18° 94° (E) 06:58:08 437.490
STRAND 1 26 Sep 06:51:38 06:54:08 14° 64° (ENE) 06:56:39 437.568
CUTE-I 26 Sep 06:51:47 06:55:27 18° 94° (E) 06:59:05 437.470
NOAA 18 26 Sep 07:14:41 07:19:05 24° 96° (E) 07:23:28 137.9125
Cosmos 2504 26 Sep 07:18:48 07:21:54 13° 292° (WNW) 07:24:58 435.465 / 435.565
HORYU 2 26 Sep 07:19:06 07:23:15 40° 287° (WNW) 07:27:24 437.375
DANDE 26 Sep 07:32:49 07:40:48 45° 75° (ENE) 07:48:12 436.750
LilacSat-2 26 Sep 07:38:05 07:41:53 60° 100° (E) 07:45:42 437.200
AO-85 26 Sep 08:04:33 08:08:30 53° 244° (WSW) 08:12:15 145.980
AO-7 26 Sep 08:04:50 08:04:55 10° 312° (NW) 08:05:00 29.400- 29.500
CUSAT 1 26 Sep 08:05:22 08:12:44 50° 269° (W) 08:18:53 437.405
O/OREOS (USA 219) 26 Sep 08:09:07 08:13:31 53° 106° (ESE) 08:17:59 437.305
GOMX 1 26 Sep 08:12:21 08:16:35 47° 286° (WNW) 08:20:37 467.674
BRITE-PL 26 Sep 08:13:24 08:16:55 21° 293° (WNW) 08:20:16 437.365/2234.400
NOAA 15 26 Sep 08:20:58 08:26:01 46° 289° (WNW) 08:31:02 137.62
STRAND 1 26 Sep 08:27:43 08:32:44 62° 259° (WSW) 08:37:48 437.568
Cubesat XI-IV 26 Sep 08:29:43 08:34:51 48° 288° (WNW) 08:39:58 437.490
CUTE-I 26 Sep 08:30:34 08:35:40 47° 288° (WNW) 08:40:46 437.470
CINEMA 3 26 Sep 08:33:32 08:36:58 24° 96° (E) 08:40:26 145.822/145.860
RS-15 26 Sep 08:39:00 08:48:32 28° 258° (WSW) 08:57:55 29.354- 29.394
Cosmos 2499 26 Sep 08:40:00 08:44:34 18° 83° (E) 08:49:02 435.465 / 435.565
DOVE 4 26 Sep 08:43:52 08:47:56 51° 286° (WNW) 08:51:56 437.250
NOAA 18 26 Sep 08:54:47 08:59:45 37° 290° (WNW) 09:04:44 137.9125
PRISM 26 Sep 08:56:43 08:59:55 22° 69° (ENE) 09:03:07 437.425
COMPASS 1 26 Sep 09:05:31 09:08:31 19° 94° (E) 09:11:30 437.405
HO-68 26 Sep 09:14:14 09:21:16 57° 102° (ESE) 09:28:15 435.675
DANDE 26 Sep 09:15:52 09:23:21 37° 272° (W) 09:30:20 436.750
GONETS M04 26 Sep 09:22:18 09:30:47 55° 90° (E) 09:39:20
CUTE 1.7 + AOD 2 26 Sep 09:24:05 09:28:23 74° 100° (E) 09:32:40 437.475
CANX-2 26 Sep 09:24:55 09:29:15 89° 103° (ESE) 09:33:32 2200.000
SEEDS 26 Sep 09:29:19 09:33:30 57° 100° (E) 09:37:41 437.485
O/OREOS (USA 219) 26 Sep 09:51:02 09:53:16 13° 302° (WNW) 09:55:30 437.305
CUBEBUG 2 26 Sep 09:53:46 09:57:59 55° 100° (E) 10:02:19 437.445
AAUSAT CUBESAT 2 26 Sep 09:57:38 10:01:49 64° 100° (E) 10:05:57 437.432
FUNcube-1 26 Sep 10:09:13 10:13:03 30° 97° (E) 10:16:55 145.935
CINEMA 3 26 Sep 10:10:47 10:13:59 22° 289° (WNW) 10:17:14 145.822/145.860
UWE-3 26 Sep 10:15:59 10:20:16 66° 101° (ESE) 10:24:40 435.000/436.395/437.385
UNISAT 6 26 Sep 10:23:08 10:26:35 24° 70° (ENE) 10:30:02 437.425
Cosmos 2499 26 Sep 10:29:48 10:36:58 62° 279° (W) 10:43:57 435.465 / 435.565
PRISM 26 Sep 10:31:36 10:35:03 25° 263° (W) 10:38:30 437.425
COMPASS 1 26 Sep 10:40:25 10:44:03 29° 288° (WNW) 10:47:41 437.405
BEESAT 2 26 Sep 10:49:08 10:51:06 13° 49° (NE) 10:53:04 435.950
ZACube-1 26 Sep 10:49:44 10:54:05 80° 281° (W) 10:58:29 437.345
Oscar 11 26 Sep 10:51:33 10:55:55 80° 283° (WNW) 11:00:16 145.826/435.025
PHONESAT 2.4 26 Sep 10:55:12 10:56:55 15° 144° (SE) 10:58:38 2401.200-2431.200
ANTELSAT 26 Sep 10:57:43 11:01:56 63° 76° (ENE) 11:06:10 437.575/2403.000
HO-68 26 Sep 11:02:57 11:08:28 25° 298° (WNW) 11:13:59 435.675
JAS-2 26 Sep 11:07:26 11:10:17 13° 56° (NE) 11:13:14 435.910
SEEDS 26 Sep 11:07:48 11:08:40 11° 294° (WNW) 11:09:32 437.485
QB50P2 26 Sep 11:18:37 11:20:37 13° 67° (ENE) 11:22:35 145.880/145.840
TIGRISAT 26 Sep 11:18:45 11:23:02 76° 259° (W) 11:27:17 435.000
GONETS M04 26 Sep 11:20:35 11:27:55 29° 288° (WNW) 11:35:20
POLYITAN 1 26 Sep 11:20:52 11:22:51 13° 67° (ENE) 11:24:49 437.675
HUMSAT D 26 Sep 11:26:54 11:31:01 47° 99° (E) 11:35:08 437.325/437.525
CUBEBUG 2 26 Sep 11:32:59 11:34:08 11° 294° (WNW) 11:35:17 437.445
BEESAT 3 26 Sep 11:33:32 11:37:31 82° 61° (ENE) 11:41:28 437.485
DELFI C3 26 Sep 11:34:03 11:38:00 61° 285° (WNW) 11:41:57 145.870
FUNcube-1 26 Sep 11:45:55 11:49:04 20° 290° (WNW) 11:52:16 145.935
QB50P1 26 Sep 11:59:28 12:03:21 37° 73° (ENE) 12:07:14 145.935-145.965
DUCHIFAT 1 26 Sep 11:59:35 12:03:18 32° 72° (ENE) 12:07:02 145.980
UNISAT 6 26 Sep 11:59:48 12:03:12 23° 264° (W) 12:06:36 437.425
BUGSAT 1 26 Sep 12:10:46 12:13:25 17° 69° (ENE) 12:16:03 437.445
POPSAT HIP 1 26 Sep 12:12:34 12:16:39 53° 75° (ENE) 12:20:45 437.405
BEESAT 2 26 Sep 12:25:18 12:29:12 51° 245° (WSW) 12:33:04 435.950
PHONESAT 2.4 26 Sep 12:29:49 12:32:45 80° 340° (NNW) 12:35:43 2401.200-2431.200
NANOSAT C BR1 26 Sep 12:30:04 12:34:15 85° 77° (ENE) 12:38:27 145.865
AISAT 26 Sep 12:37:31 12:40:44 20° 95° (E) 12:43:56 437.250
SPROUT 26 Sep 12:45:11 12:46:32 11° 92° (E) 12:47:52 437.525
JAS-2 26 Sep 12:47:46 12:53:58 84° 76° (ENE) 13:01:05 435.910
QB50P2 26 Sep 12:51:58 12:55:59 43° 261° (W) 13:00:01 145.880/145.840
POLYITAN 1 26 Sep 12:54:14 12:58:14 43° 261° (W) 13:02:14 437.675
UKube-1 26 Sep 12:55:05 12:57:06 13° 93° (E) 12:59:08 .
AIST 2 26 Sep 12:56:21 12:57:43 11° 47° (NE) 12:59:06 435.215
M-CUBED/EXP-1 PRIME 26 Sep 13:02:31 13:04:33 15° 100° (E) 13:06:35 437.505
HUMSAT D 26 Sep 13:04:19 13:06:11 13° 293° (WNW) 13:08:05 437.325/437.525
ESTCUBE 1 26 Sep 13:13:22 13:17:54 73° 283° (WNW) 13:22:24 437.505/2401.250
DX 1 26 Sep 13:18:35 13:22:33 34° 99° (E) 13:26:28 434.975-435.025
VELOX 1 26 Sep 13:20:23 13:24:45 61° 101° (E) 13:29:04 145.980
YUBILEINY 26 Sep 13:23:50 13:24:51 10° 62° (ENE) 13:25:51 435.215
CUBEBUG 1 26 Sep 13:29:19 13:33:39 76° 284° (WNW) 13:37:56 437.445
50 SAT 26 Sep 13:35:17 13:38:57 77° 283° (WNW) 13:42:35 437.505
DUCHIFAT 1 26 Sep 13:36:20 13:39:01 17° 266° (W) 13:41:43 145.980
QB50P1 26 Sep 13:36:55 13:39:13 14° 266° (W) 13:41:32 145.935-145.965
BUGSAT 1 26 Sep 13:44:50 13:48:31 31° 262° (W) 13:52:12 437.445
Oscar 19 26 Sep 13:52:39 13:57:38 48° 72° (ENE) 14:02:37 437.125/150
PCSat 26 Sep 13:53:39 13:57:04 17° 50° (NE) 14:00:27 145.827
AUBIESAT-1 26 Sep 13:59:59 14:03:17 88° 305° (NW) 14:06:37 437.475
PHONESAT 2.4 26 Sep 14:06:31 14:09:08 27° 354° (N) 14:11:45 2401.200-2431.200
TISAT 1 26 Sep 14:10:15 14:13:25 21° 96° (E) 14:16:35 437.305
AISAT 26 Sep 14:13:23 14:17:12 29° 289° (WNW) 14:20:59 437.250
SPROUT 26 Sep 14:18:36 14:22:41 48° 286° (WNW) 14:26:46 437.525
UKube-1 26 Sep 14:29:14 14:33:19 43° 287° (WNW) 14:37:22 .
AIST 2 26 Sep 14:32:28 14:36:39 69° 243° (WSW) 14:40:49 435.215
Gurwin Techsat 1B 26 Sep 14:36:27 14:41:40 60° 74° (ENE) 14:46:54 435.225
M-CUBED/EXP-1 PRIME 26 Sep 14:36:38 14:39:03 19° 294° (WNW) 14:41:27 437.505
JAS-2 26 Sep 14:37:26 14:40:01 12° 274° (W) 14:42:42 435.910
ITAMSAT 1 26 Sep 14:43:47 14:47:15 18° 65° (ENE) 14:50:44 435.822/435.867
DX 1 26 Sep 14:55:34 14:58:26 18° 293° (WNW) 15:01:18 434.975-435.025
SO-50 26 Sep 14:57:47 14:58:43 10° 106° (ESE) 14:59:39 436.795
VELOX 1 26 Sep 14:59:48 15:00:38 10° 296° (WNW) 15:01:27 145.980
Cosmos 2491 26 Sep 15:05:51 15:13:31 35° 86° (E) 15:21:12 435.465 / 435.565
AO-7 26 Sep 15:09:49 15:16:42 30° 60° (ENE) 15:23:33 29.400- 29.500
ITUPSAT 1 26 Sep 15:14:31 15:18:08 21° 95° (E) 15:21:42 437.325
YUBILEINY 26 Sep 15:14:39 15:23:20 69° 82° (E) 15:31:57 435.215
Cosmos 2504 26 Sep 15:16:30 15:22:22 24° 73° (ENE) 15:28:29 435.465 / 435.565
SWISSCUBE 26 Sep 15:27:57 15:32:18 33° 98° (E) 15:36:37 437.505
Oscar 19 26 Sep 15:33:52 15:37:09 17° 267° (W) 15:40:27 437.125/150
PCSat 26 Sep 15:35:33 15:40:56 66° 247° (WSW) 15:46:15 145.827
BEESAT 26 Sep 15:40:59 15:45:31 41° 99° (E) 15:50:02 436.000
PHONESAT 2.4 26 Sep 15:43:00 15:45:42 31° 10° (N) 15:48:25 2401.200-2431.200
TISAT 1 26 Sep 15:45:34 15:48:59 25° 289° (WNW) 15:52:25 437.305
Gurwin Techsat 1B 26 Sep 16:19:20 16:21:57 14° 268° (W) 16:24:35 435.225
ITAMSAT 1 26 Sep 16:21:22 16:26:19 46° 260° (W) 16:31:18 435.822/435.867
KKS-1 26 Sep 16:25:27 16:25:57 10° 92° (E) 16:26:27 437.445
SO-50 26 Sep 16:33:44 16:38:34 73° 300° (WNW) 16:43:23 436.795
AIST 1 26 Sep 16:41:26 16:44:12 17° 75° (ENE) 16:46:55
ITUPSAT 1 26 Sep 16:51:38 16:55:58 34° 289° (WNW) 17:00:18 437.325
AO-7 26 Sep 17:00:51 17:08:58 56° 257° (WSW) 17:17:07 29.400- 29.500
Cosmos 2491 26 Sep 17:01:49 17:10:03 44° 283° (WNW) 17:18:23 435.465 / 435.565
STARS 26 Sep 17:02:08 17:04:09 13° 93° (E) 17:06:09 437.465
SWISSCUBE 26 Sep 17:06:13 17:09:51 22° 292° (WNW) 17:13:29 437.505
Cosmos 2504 26 Sep 17:08:45 17:15:59 55° 268° (W) 17:23:42 435.465 / 435.565
YUBILEINY 26 Sep 17:13:13 17:19:12 21° 279° (W) 17:25:13 435.215
PHONESAT 2.4 26 Sep 17:19:01 17:21:59 66° 206° (SSW) 17:24:56 2401.200-2431.200
BEESAT 26 Sep 17:19:45 17:22:56 18° 293° (WNW) 17:26:07 436.000
MOZHAYETS 4 26 Sep 17:21:30 17:26:10 87° 98° (E) 17:30:49
BRITE-PL 26 Sep 17:40:31 17:45:29 32° 70° (ENE) 17:50:24 437.365/2234.400
GOMX 1 26 Sep 17:40:58 17:43:21 13° 65° (ENE) 17:45:41 467.674
KKS-1 26 Sep 17:58:29 18:02:49 57° 286° (WNW) 18:07:08 437.445
NOAA 15 26 Sep 17:59:15 18:03:15 22° 67° (ENE) 18:07:15 137.62
Cubesat XI-IV 26 Sep 18:09:49 18:13:48 22° 67° (ENE) 18:17:48 437.490
CUTE-I 26 Sep 18:10:26 18:14:27 23° 67° (ENE) 18:18:30 437.470
HORYU 2 26 Sep 18:13:15 18:17:37 66° 258° (WSW) 18:22:01 437.375
LilacSat-2 26 Sep 18:17:45 18:20:21 18° 70° (ENE) 18:22:57 437.200
AIST 1 26 Sep 18:18:03 18:21:50 31° 269° (W) 18:25:34
O/OREOS (USA 219) 26 Sep 18:22:22 18:26:55 59° 68° (ENE) 18:31:26 437.305
STARS 26 Sep 18:36:32 18:40:41 44° 287° (WNW) 18:44:50 437.465
CUBESAT XI-V 26 Sep 18:37:02 18:41:43 70° 101° (E) 18:46:21 437.345
NOAA 18 26 Sep 18:37:34 18:42:27 34° 69° (ENE) 18:47:20 137.9125
RS-15 26 Sep 18:41:45 18:44:05 11° 94° (E) 18:46:27 29.354- 29.394
GOMX 1 26 Sep 19:15:22 19:20:49 73° 258° (WSW) 19:26:06 467.674
BRITE-PL 26 Sep 19:18:47 19:23:47 32° 264° (W) 19:28:48 437.365/2234.400
CUSAT 1 26 Sep 19:20:45 19:25:39 28° 85° (E) 19:31:29 437.405
CINEMA 3 26 Sep 19:32:41 19:35:34 17° 69° (ENE) 19:38:23 145.822/145.860
NOAA 15 26 Sep 19:37:46 19:42:43 40° 261° (W) 19:47:43 137.62
GONETS M04 26 Sep 19:37:56 19:44:24 22° 69° (ENE) 19:50:48
HO-68 26 Sep 19:39:50 19:45:52 30° 64° (ENE) 19:51:54 435.675
DOVE 4 26 Sep 19:44:43 19:49:51 82° 257° (WSW) 19:54:44 437.250
Cubesat XI-IV 26 Sep 19:48:37 19:53:34 40° 261° (W) 19:58:33 437.490
CUTE-I 26 Sep 19:49:18 19:54:13 39° 261° (W) 19:59:10 437.470
LilacSat-2 26 Sep 19:51:24 19:54:27 23° 264° (W) 19:57:31 437.200
O/OREOS (USA 219) 26 Sep 20:04:54 20:05:43 10° 263° (W) 20:06:33 437.305
CUTE 1.7 + AOD 2 26 Sep 20:13:30 20:17:16 32° 72° (ENE) 20:21:04 437.475
CANX-2 26 Sep 20:14:17 20:18:12 39° 73° (ENE) 20:22:09 2200.000
CUBESAT XI-V 26 Sep 20:17:39 20:18:27 10° 296° (WNW) 20:19:14 437.345
SEEDS 26 Sep 20:18:03 20:21:29 25° 71° (ENE) 20:24:57 437.485
NOAA 18 26 Sep 20:18:34 20:23:05 26° 263° (W) 20:27:37 137.9125
Cosmos 2499 26 Sep 20:23:36 20:30:30 36° 77° (ENE) 20:37:51 435.465 / 435.565
DANDE 26 Sep 20:37:24 20:41:48 43° 89° (E) 20:47:35 436.750
AO-85 26 Sep 20:38:10 20:39:25 11° 107° (ESE) 20:40:39 145.980
STRAND 1 26 Sep 20:41:29 20:46:35 59° 101° (E) 20:51:39 437.568
RS-15 26 Sep 20:42:44 20:54:01 68° 113° (ESE) 21:05:56 29.354- 29.394
AAUSAT CUBESAT 2 26 Sep 20:44:47 20:48:16 26° 71° (ENE) 20:51:45 437.432
ISS 26 Sep 20:47:35 20:50:35 35° 132° (SE) 20:53:35 145.825
CUBEBUG 2 26 Sep 20:49:02 20:52:41 29° 72° (ENE) 20:56:18 437.445
CUSAT 1 26 Sep 21:01:43 21:07:13 41° 287° (WNW) 21:14:03 437.405
FUNcube-1 26 Sep 21:02:53 21:05:15 15° 68° (ENE) 21:07:37 145.935
CINEMA 3 26 Sep 21:08:12 21:12:26 37° 262° (W) 21:16:31 145.822/145.860
UWE-3 26 Sep 21:10:02 21:13:46 33° 73° (ENE) 21:17:29 435.000/436.395/437.385
HO-68 26 Sep 21:26:27 21:33:16 46° 260° (W) 21:40:06 435.675
COMPASS 1 26 Sep 21:26:52 21:31:00 69° 259° (W) 21:35:11 437.405
GONETS M04 26 Sep 21:33:11 21:41:55 69° 268° (W) 21:50:33
ZACube-1 26 Sep 21:42:15 21:46:15 49° 75° (ENE) 21:50:15 437.345
Oscar 11 26 Sep 21:42:44 21:46:52 49° 75° (ENE) 21:51:03 145.826/435.025
CUTE 1.7 + AOD 2 26 Sep 21:50:26 21:53:10 17° 266° (W) 21:55:54 437.475
CANX-2 26 Sep 21:51:59 21:54:11 14° 267° (W) 21:56:24 2200.000
SEEDS 26 Sep 21:53:52 21:57:06 22° 265° (W) 22:00:22 437.485
JUGNU 26 Sep 21:55:40 21:59:05 16° 171° (S) 22:02:29 437.505
AO-85 26 Sep 22:14:03 22:19:20 80° 299° (WNW) 22:24:19 145.980
PRISM 26 Sep 22:15:34 22:19:38 54° 101° (E) 22:23:37 437.425
HUMSAT D 26 Sep 22:15:38 22:18:39 20° 70° (ENE) 22:21:41 437.325/437.525
DELFI C3 26 Sep 22:16:11 22:19:59 44° 74° (ENE) 22:23:49 145.870
Cosmos 2499 26 Sep 22:16:38 22:23:30 38° 271° (W) 22:30:51 435.465 / 435.565
AAUSAT CUBESAT 2 26 Sep 22:20:37 22:23:41 20° 265° (W) 22:26:46 437.432
DANDE 26 Sep 22:21:26 22:25:04 19° 295° (WNW) 22:29:25 436.750
STRAND 1 26 Sep 22:22:27 22:25:12 15° 296° (WNW) 22:27:57 437.568
ISS 26 Sep 22:24:38 22:27:08 20° 328° (NNW) 22:29:39 145.825
CUBEBUG 2 26 Sep 22:26:24 22:29:19 18° 265° (W) 22:32:12 437.445
FUNcube-1 26 Sep 22:37:23 22:41:11 35° 262° (W) 22:44:59 145.935
UWE-3 26 Sep 22:47:44 22:50:17 16° 266° (W) 22:52:50 435.000/436.395/437.385
ANTELSAT 26 Sep 22:53:25 22:56:21 17° 94° (E) 22:59:18 437.575/2403.000
